Change the Weather History Date:

Monday, July 29, 2013

  Actual Average Record
Temperature  
Mean Temperature 68 °F -  
Max Temperature 81 °F 88 °F 99 °F (1952)
Min Temperature 56 °F 66 °F 32 °F (1999)
Cooling Degree Days 4    
Growing Degree Days 18 (Base 50)    
Moisture  
Dew Point 61 °F    
Average Humidity 73    
Maximum Humidity 100    
Minimum Humidity 45    
Precipitation  
Precipitation 0.00 in - - ()
Sea Level Pressure  
Sea Level Pressure 30.15 in    
Wind  
Wind Speed 4 mph (SSW)    
Max Wind Speed 9 mph    
Max Gust Speed -    
Visibility 10 miles    
Events Rain    
Averages and records for this station are not official NWS values.
T = Trace of Precipitation, MM = Missing Value Source: NWS Daily Summary

Daily Weather History Graph

Daily Weather History Graph

Search for Another Location

Airport or City:

Trip Planner

Search our weather history database for the weather conditions in past years. The results will help you decide how hot, cold, wet, or windy it might be!

Date:

Astronomy

Jul. 29, 2013 Rise Set
Actual Time 5:49 AM CDT 7:59 PM CDT
Civil Twilight 5:20 AM CDT 8:29 PM CDT
Nautical Twilight 4:44 AM CDT 9:04 PM CDT
Astronomical Twilight 4:05 AM CDT 9:43 PM CDT
Moon No Moon Rise 1:21 PM CDT (7/29)
Length of Visible Light 15h 08m
Length of Day
14h 09m
Waning Gibbous, 50% of the Moon is Illuminated
Jul 29
Waning Gibbous
Jul 29
Last Quarter
Aug 6
New
Aug 14
First Quarter
Aug 20
Full

Hourly Weather History & Observations

Time (CDT) Temp. Heat Index Dew Point Humidity Pressure Visibility Wind Dir Wind Speed Gust Speed Precip Events Conditions
12:56 AM 57.9 °F - 57.9 °F 100% 30.09 in 10.0 mi ESE 4.6 mph - N/A   Clear
1:56 AM 59.0 °F - 57.9 °F 96% 30.09 in 10.0 mi ESE 3.5 mph - N/A   Clear
2:56 AM 57.9 °F - 56.8 °F 96% 30.09 in 10.0 mi Calm Calm - N/A   Clear
3:56 AM 57.9 °F - 56.8 °F 96% 30.10 in 10.0 mi Calm Calm - N/A   Clear
4:56 AM 56.8 °F - 56.8 °F 100% 30.11 in 10.0 mi ESE 3.5 mph - N/A   Clear
5:56 AM 56.8 °F - 56.8 °F 100% 30.13 in 10.0 mi Calm Calm - N/A   Clear
6:56 AM 61.0 °F - 59.9 °F 96% 30.14 in 10.0 mi Calm Calm - N/A   Clear
7:56 AM 64.9 °F - 61.9 °F 90% 30.16 in 10.0 mi Calm Calm - N/A   Clear
8:56 AM 70.9 °F - 63.0 °F 76% 30.16 in 10.0 mi SW 5.8 mph - N/A   Clear
9:56 AM 74.8 °F - 63.0 °F 66% 30.17 in 10.0 mi WSW 9.2 mph - N/A   Clear
10:56 AM 77.9 °F - 61.9 °F 58% 30.17 in 10.0 mi WSW 5.8 mph - N/A   Clear
11:56 AM 77.9 °F - 61.0 °F 56% 30.17 in 10.0 mi SW 5.8 mph - N/A   Mostly Cloudy
12:56 PM 79.0 °F - 59.9 °F 52% 30.17 in 10.0 mi Variable 5.8 mph - N/A   Scattered Clouds
1:56 PM 79.9 °F - 59.9 °F 50% 30.16 in 10.0 mi WSW 6.9 mph - N/A   Scattered Clouds
2:56 PM 79.9 °F - 59.0 °F 49% 30.15 in 10.0 mi SW 5.8 mph - N/A   Partly Cloudy
3:56 PM 81.0 °F 81.1 °F 57.9 °F 45% 30.15 in 10.0 mi West 4.6 mph - N/A   Partly Cloudy
4:56 PM 81.9 °F 82.5 °F 61.0 °F 49% 30.15 in 10.0 mi SW 5.8 mph - N/A   Scattered Clouds
5:56 PM 79.9 °F - 61.0 °F 52% 30.16 in 10.0 mi WNW 4.6 mph - N/A   Partly Cloudy
6:56 PM 77.9 °F - 63.9 °F 62% 30.15 in 10.0 mi SW 3.5 mph - N/A   Clear
7:56 PM 75.9 °F - 61.9 °F 62% 30.15 in 10.0 mi NNE 3.5 mph - N/A   Clear
8:56 PM 72.9 °F - 64.9 °F 76% 30.17 in 10.0 mi SSE 3.5 mph - 0.00 in Rain Light Rain
9:56 PM 72.0 °F - 63.0 °F 73% 30.18 in 10.0 mi South 3.5 mph - 0.00 in   Clear
10:56 PM 70.9 °F - 64.9 °F 81% 30.17 in 10.0 mi East 3.5 mph - N/A   Mostly Cloudy
11:56 PM 70.0 °F - 63.9 °F 81% 30.17 in 10.0 mi East 3.5 mph - N/A   Scattered Clouds